Location: Newark
(7.0858°N, 171.3717°E)
Time: 08:48:12
(UTC+00:00)

S-56A Canister/Altair - Pass Details

Date: 28 November 2020
Orbit: 633 x 2499 km, 38.9° (Epoch: 27 January)

Event Time Altitude Azimuth Distance (km) Brightness Sun altitude
Rises 03:37:40 0° 212° (SSW) 6,024 12.9 34.3°
Reaches altitude 10° 03:41:52 10° 206° (SSW) 5,112 12.7 33.4°
Maximum altitude 03:55:52 44° 139° (SE) 3,075 10.8 30.5°
Drops below altitude 10° 04:08:06 10° 72° (ENE) 4,537 11.0 27.8°
Sets 04:11:31 0° 66° (ENE) 5,319 11.3 27.1°
